This demonstration page uses our WeatherBlox Daily Observations layout. Learn more.

Left ArrowRight Arrow

Hourly Observations for November 3, 2020

Temp ( °F °C ) Dew Point ( °F °C ) Humidity (%) Winds ( mph kmh ) Pressure ( in mb ) Visibility ( mi km ) Precip ( " mm )
12:53 am 00:53 Clear 41 5 20 -6.7 43 43 WSW 7 11 30.22 1023 10 16 0.00 0.00
1:53 am 01:53 Clear 40 4.4 20 -6.7 45 45 SW 5 7 30.22 1023 10 16 0.00 0.00
2:53 am 02:53 Clear 35 1.7 21 -6.1 57 57 Calm 30.23 1024 10 16 0.00 0.00
3:53 am 03:53 Clear 35 1.7 21 -6.1 57 57 SW 5 7 30.22 1023 10 16 0.00 0.00
4:53 am 04:53 Clear 36 2.2 22 -5.6 57 57 WSW 3 6 30.22 1024 10 16 0.00 0.00
5:53 am 05:53 Clear 34 1.1 23 -5 64 64 Calm 30.22 1023 10 16 0.00 0.00
6:53 am 06:53 Clear 37 2.8 24 -4.4 59 59 WSW 3 6 30.23 1024 10 16 0.00 0.00
7:53 am 07:53 Sunny 38 3.3 25 -3.9 60 60 WSW 5 7 30.24 1024 10 16 0.00 0.00
8:53 am 08:53 Sunny 44 6.7 26 -3.3 49 49 SW 8 13 30.26 1025 10 16 0.00 0.00
9:53 am 09:53 Sunny 49 9.4 29 -1.7 46 46 WSW 9 15 30.25 1025 10 16 0.00 0.00
10:53 am 10:53 Sunny 52 11.1 30 -1.1 43 43 VRB 5 7 30.26 1025 10 16 0.00 0.00
11:53 am 11:53 Sunny 57 13.9 32 0 39 39 VRB 5 7 30.25 1024 10 16 0.00 0.00
12:53 pm 12:53 Sunny 61 16.1 35 1.7 38 38 undefined N/A 30.23 1024 10 16 0.00 0.00
1:53 pm 13:53 Sunny 64 17.8 33 0.6 32 32 SW 8 13 30.21 1023 10 16 0.00 0.00
2:53 pm 14:53 Sunny 66 18.9 34 1.1 30 30 VRB 6 9 30.20 1023 10 16 0.00 0.00
3:53 pm 15:53 Sunny 65 18.3 34 1.1 32 32 SSW 5 7 30.20 1023 10 16 0.00 0.00
4:53 pm 16:53 Sunny 63 17.2 33 0.6 33 33 VRB 7 11 30.20 1023 10 16 0.00 0.00
5:53 pm 17:53 Clear 57 13.9 34 1.1 42 42 Calm 30.21 1023 10 16 0.00 0.00
6:53 pm 18:53 Clear 45 7.2 35 1.7 68 68 Calm 30.22 1024 10 16 0.00 0.00
7:53 pm 19:53 Clear 41 5 34 1.1 76 76 Calm 30.24 1024 10 16 0.00 0.00
8:53 pm 20:53 Clear 43 6.1 34 1.1 71 71 Calm 30.24 1024 10 16 0.00 0.00
9:53 pm 21:53 Clear 38 3.3 33 0.6 83 83 Calm 30.26 1025 10 16 0.00 0.00
10:53 pm 22:53 Clear 37 2.8 32 0 82 82 Calm 30.26 1025 10 16 0.00 0.00
11:53 pm 23:53 Clear 35 1.7 31 -0.6 85 85 Calm 30.26 1025 10 16 0.00 0.00

Powered by AerisWeather